Location: Recife
(8.0585°S, 34.8848°W)
Time: 09:52:31
(UTC-03:00)

S-56A Canister/Altair - Pass Details

Date: 23 April 2026
Orbit: 633 x 2484 km, 38.9° (Epoch: 20 May)

Event Time Altitude Azimuth Distance (km) Brightness Sun altitude
Rises 23:15:08 0° 259° (W) 2,991 - -85.2°
Reaches altitude 10° 23:17:51 10° 278° (W) 2,188 - -85.2°
Maximum altitude 23:21:27 20° 325° (NW) 1,813 - -85.1°
Drops below altitude 10° 23:25:49 10° 10° (N) 2,716 - -84.8°
Sets 23:29:44 0° 26° (NNE) 4,000 - -84.4°
